EW5196 Weather Reports


time (UTC)temp
C
wind
direction
speed
KPH
gust
KPH
rain 1hr
cm
rain 24hr
cm
rain mn
cm
humidity
%
barometer
mb
20260510142536 25 180 3.2 3.2 0.00 0.00 0.00 47 1016.0
20260510142033 24 196 1.6 4.8 0.00 0.00 0.00 48 1016.0
20260510141530 23 178 1.6 4.8 0.00 0.00 0.00 50 1016.1
20260510141028 23 142 3.2 6.4 0.00 0.00 0.00 48 1016.1
20260510140524 23 146 3.2 3.2 0.00 0.00 0.00 52 1016.0
20260510140023 22 170 3.2 3.2 0.00 0.00 0.00 53 1016.0
20260510135519 21 197 1.6 4.8 0.00 0.00 0.00 56 1015.9
20260510135015 21 160 3.2 3.2 0.00 0.00 0.00 60 1016.0
20260510134513 21 176 3.2 4.8 0.00 0.00 0.00 61 1015.9
20260510134010 20 143 3.2 4.8 0.00 0.00 0.00 61 1016.1
20260510133505 20 151 3.2 3.2 0.00 0.00 0.00 66 1016.1
20260510133001 20 148 4.8 4.8 0.00 0.00 0.00 66 1016.1
20260510132459 20 157 3.2 4.8 0.00 0.00 0.00 69 1016.0
20260510131955 19 162 3.2 3.2 0.00 0.00 0.00 68 1015.9
20260510131453 19 156 3.2 3.2 0.00 0.00 0.00 71 1016.2
20260510130950 18 148 3.2 3.2 0.00 0.00 0.00 75 1015.9
20260510130446 18 138 3.2 3.2 0.00 0.00 0.00 76 1016.1
20260510125944 18 150 3.2 3.2 0.00 0.00 0.00 79 1015.8
20260510125440 17 142 1.6 3.2 0.00 0.00 0.00 80 1015.7
20260510124937 17 150 3.2 3.2 0.00 0.00 0.00 82 1015.7
20260510124433 17 157 3.2 4.8 0.00 0.00 0.00 85 1015.6
20260510123930 16 146 3.2 3.2 0.00 0.00 0.00 88 1015.7
20260510123425 16 160 1.6 3.2 0.00 0.00 0.00 90 1015.9
20260510122922 15 150 3.2 3.2 0.00 0.00 0.00 93 1015.8
20260510122417 15 156 1.6 3.2 0.00 0.00 0.00 96 1016.1
20260510121913 15 158 3.2 3.2 0.00 0.00 0.00 97 1015.6
20260510121411 14 143 3.2 3.2 0.00 0.00 0.00 98 1015.5
20260510120908 13 149 3.2 3.2 0.00 0.00 0.00 99 1015.3
20260510120405 13 153 3.2 3.2 0.00 0.00 0.00 99 1015.2
20260510115901 13 149 3.2 3.2 0.00 0.00 0.00 99 1015.3
20260510115358 12 156 3.2 3.2 0.00 0.00 0.00 99 1015.0
20260510114854 12 147 1.6 3.2 0.00 0.00 0.00 99 1015.1
20260510114351 12 142 3.2 3.2 0.00 0.00 0.00 99 1014.9
20260510113851 11 158 3.2 3.2 0.00 0.00 0.00 99 1014.9
20260510113347 11 153 3.2 3.2 0.00 0.00 0.00 98 1015.1
20260510112844 11 151 3.2 3.2 0.00 0.00 0.00 98 1015.0
20260510112342 11 144 1.6 3.2 0.00 0.00 0.00 98 1014.7
20260510111837 11 146 3.2 3.2 0.00 0.00 0.00 98 1014.7
20260510111334 10 150 3.2 3.2 0.00 0.00 0.00 98 1014.6
20260510110834 10 149 3.2 4.8 0.00 0.00 0.00 98 1014.6
20260510110332 10 158 3.2 3.2 0.00 0.00 0.00 98 1014.4
20260510105827 10 145 3.2 3.2 0.00 0.00 0.00 98 1014.4
20260510105322 10 154 3.2 3.2 0.00 0.00 0.00 98 1014.4
20260510104819 10 154 3.2 3.2 0.00 0.00 0.00 98 1014.8
20260510104316 10 152 3.2 3.2 0.00 0.00 0.00 98 1014.3
20260510103812 10 148 3.2 4.8 0.00 0.00 0.00 98 1014.4
20260510103309 10 152 3.2 4.8 0.00 0.00 0.00 98 1014.4
20260510102804 10 134 3.2 3.2 0.00 0.00 0.00 97 1014.4
20260510102300 10 153 3.2 4.8 0.00 0.00 0.00 97 1014.3
20260510101757 10 155 3.2 3.2 0.00 0.00 0.00 97 1014.2
20260510101255 10 138 3.2 3.2 0.00 0.00 0.00 97 1014.2
20260510100751 10 154 3.2 4.8 0.00 0.00 0.00 97 1014.2
20260510100249 11 153 3.2 4.8 0.00 0.00 0.00 97 1014.0
20260510095744 11 158 3.2 4.8 0.00 0.00 0.00 97 1013.9
20260510095239 11 160 3.2 3.2 0.00 0.00 0.00 97 1013.8
20260510094738 11 143 3.2 3.2 0.00 0.00 0.00 97 1013.6
20260510094234 11 159 3.2 4.8 0.00 0.00 0.00 97 1014.0
20260510093730 11 154 3.2 4.8 0.00 0.00 0.00 97 1013.8
20260510093228 11 156 3.2 3.2 0.00 0.00 0.00 97 1013.7
20260510092724 11 165 3.2 4.8 0.00 0.00 0.00 97 1013.8
20260510092220 11 152 3.2 4.8 0.00 0.00 0.00 97 1013.7
20260510091715 11 147 3.2 3.2 0.00 0.00 0.00 96 1013.7
20260510091212 11 149 3.2 3.2 0.00 0.00 0.00 96 1013.7
20260510090709 11 148 3.2 3.2 0.00 0.00 0.00 96 1013.4
20260510090206 11 142 3.2 3.2 0.00 0.00 0.00 97 1013.4
20260510085701 12 160 3.2 4.8 0.00 0.00 0.00 96 1013.4
20260510085156 12 166 4.8 4.8 0.00 0.00 0.00 96 1013.3
20260510084652 12 156 3.2 4.8 0.00 0.00 0.00 96 1013.3
20260510084149 12 152 3.2 3.2 0.00 0.00 0.00 96 1013.3
20260510083646 12 155 3.2 3.2 0.00 0.00 0.00 96 1013.2
20260510083143 12 154 3.2 3.2 0.00 0.00 0.00 96 1013.2
20260510082639 12 144 3.2 4.8 0.00 0.00 0.00 96 1013.1
20260510082135 12 140 3.2 3.2 0.00 0.00 0.00 96 1013.2
20260510081629 12 128 3.2 3.2 0.00 0.00 0.00 95 1013.0
20260510081126 12 153 3.2 3.2 0.00 0.00 0.00 95 1013.2
20260510080625 12 145 3.2 4.8 0.00 0.00 0.00 95 1012.9
20260510080122 13 151 3.2 4.8 0.00 0.00 0.00 95 1013.2
20260510075619 13 154 1.6 3.2 0.00 0.00 0.00 96 1013.1
20260510075116 13 137 1.6 3.2 0.00 0.00 0.00 96 1013.2
20260510074613 13 125 1.6 3.2 0.00 0.00 0.00 95 1012.8
20260510074109 13 170 3.2 3.2 0.00 0.00 0.00 95 1013.0
20260510073559 13 160 3.2 4.8 0.00 0.00 0.00 95 1012.8
20260510073057 13 160 3.2 3.2 0.00 0.00 0.00 95 1013.0
20260510072553 13 144 3.2 3.2 0.00 0.00 0.00 95 1012.9
20260510072049 13 170 3.2 3.2 0.00 0.00 0.00 94 1013.0
20260510071545 13 159 3.2 3.2 0.00 0.00 0.00 94 1012.8
20260510071044 13 164 3.2 4.8 0.00 0.00 0.00 94 1012.8
20260510070540 13 158 3.2 4.8 0.00 0.00 0.00 94 1013.0
20260510070037 14 149 3.2 4.8 0.00 0.00 0.00 93 1012.7
20260510065533 14 150 3.2 4.8 0.00 0.00 0.00 93 1012.7
20260510065029 14 150 3.2 3.2 0.00 0.00 0.00 92 1013.0
20260510064526 14 134 1.6 3.2 0.00 0.00 0.00 92 1012.7
20260510064023 15 139 3.2 3.2 0.00 0.00 0.00 92 1013.0
20260510063520 15 136 1.6 3.2 0.00 0.00 0.00 92 1012.9
20260510063017 15 155 3.2 3.2 0.00 0.00 0.00 91 1012.7
20260510062512 15 144 3.2 3.2 0.00 0.00 0.00 91 1012.9
20260510062008 15 144 3.2 3.2 0.00 0.00 0.00 91 1012.8
20260510061505 15 154 3.2 3.2 0.00 0.00 0.00 91 1012.9
20260510061001 15 161 3.2 3.2 0.00 0.00 0.00 91 1012.9
20260510060458 15 150 3.2 3.2 0.00 0.00 0.00 90 1012.9
20260510055954 15 141 3.2 3.2 0.00 0.00 0.00 91 1012.8
20260510055450 15 154 3.2 3.2 0.00 0.00 0.00 91 1012.7
20260510054948 15 158 3.2 3.2 0.00 0.00 0.00 90 1012.7
20260510054443 15 160 3.2 3.2 0.00 0.00 0.00 90 1012.9
20260510053938 15 158 3.2 3.2 0.00 0.00 0.00 89 1012.9
20260510053434 15 151 3.2 3.2 0.00 0.00 0.00 88 1012.9
20260510052931 15 142 3.2 3.2 0.00 0.00 0.00 88 1012.9
20260510052426 16 158 3.2 3.2 0.00 0.00 0.00 88 1012.8
20260510051923 16 150 3.2 3.2 0.00 0.00 0.00 87 1013.0
20260510051419 16 147 3.2 3.2 0.00 0.00 0.00 87 1012.9
20260510050916 16 149 3.2 3.2 0.00 0.00 0.00 87 1012.9
20260510050413 16 156 3.2 3.2 0.00 0.00 0.00 86 1012.9
20260510045910 16 160 3.2 3.2 0.00 0.00 0.00 86 1012.9
20260510045407 16 161 3.2 3.2 0.00 0.00 0.00 85 1012.9
20260510044904 16 149 3.2 3.2 0.00 0.00 0.00 85 1012.9
20260510044400 16 154 3.2 3.2 0.00 0.00 0.00 84 1012.9
20260510043857 16 143 3.2 3.2 0.00 0.00 0.00 84 1013.0
20260510043353 16 159 3.2 3.2 0.00 0.00 0.00 84 1012.7
20260510042851 16 148 3.2 3.2 0.00 0.00 0.00 84 1012.9
20260510042346 16 166 3.2 3.2 0.00 0.00 0.00 84 1012.9
20260510041843 16 159 3.2 3.2 0.00 0.00 0.00 83 1012.9
20260510041340 16 148 3.2 3.2 0.00 0.00 0.00 83 1012.5
20260510040838 16 156 3.2 3.2 0.00 0.00 0.00 83 1012.9
20260510040334 16 151 3.2 3.2 0.00 0.00 0.00 83 1012.6
20260510035829 16 167 3.2 3.2 0.00 0.00 0.00 82 1012.6
20260510035326 16 152 3.2 3.2 0.00 0.00 0.00 82 1012.4
20260510034822 16 155 3.2 3.2 0.00 0.00 0.00 81 1012.6
20260510034320 16 166 3.2 3.2 0.00 0.00 0.00 81 1012.6
20260510033816 16 148 3.2 3.2 0.00 0.00 0.00 80 1012.4
20260510033313 16 155 3.2 3.2 0.00 0.00 0.00 80 1012.4
20260510032810 17 156 3.2 3.2 0.00 0.00 0.00 79 1012.6
20260510032306 17 146 3.2 3.2 0.00 0.00 0.00 79 1012.4
20260510031801 17 153 3.2 3.2 0.00 0.00 0.00 78 1012.3
20260510031257 17 158 3.2 3.2 0.00 0.00 0.00 78 1012.3
20260510030751 17 159 3.2 4.8 0.00 0.00 0.00 79 1012.4
20260510030248 17 158 3.2 3.2 0.00 0.00 0.00 79 1012.5
20260510025746 17 155 3.2 3.2 0.00 0.00 0.00 79 1012.3
20260510025244 16 151 3.2 3.2 0.00 0.00 0.00 79 1012.4
20260510024740 16 159 3.2 3.2 0.00 0.00 0.00 79 1012.3
20260510024236 16 156 3.2 4.8 0.00 0.00 0.00 79 1012.1
20260510023732 16 147 3.2 3.2 0.00 0.00 0.00 79 1012.2
20260510023229 16 149 3.2 3.2 0.00 0.00 0.00 79 1012.4
20260510022725 16 149 3.2 3.2 0.00 0.00 0.00 79 1012.3
20260510022220 16 154 3.2 3.2 0.00 0.00 0.00 78 1011.9
20260510021715 17 153 3.2 3.2 0.00 0.00 0.00 79 1012.0
20260510021213 16 153 3.2 3.2 0.00 0.00 0.00 79 1011.9
20260510020707 16 154 3.2 3.2 0.00 0.00 0.00 79 1011.7
20260510020202 16 147 3.2 3.2 0.00 0.00 0.00 78 1011.8
20260510015658 17 142 1.6 3.2 0.00 0.00 0.00 78 1011.7
20260510015155 17 151 3.2 3.2 0.00 0.00 0.00 78 1011.7
20260510014650 17 153 3.2 3.2 0.00 0.00 0.00 78 1011.5
20260510014148 17 162 3.2 3.2 0.00 0.00 0.00 77 1011.5
20260510013643 17 155 3.2 3.2 0.00 0.00 0.00 76 1011.6
20260510013139 17 157 3.2 3.2 0.00 0.00 0.00 76 1011.6
20260510012638 17 155 3.2 3.2 0.00 0.00 0.00 77 1011.3
20260510012134 17 161 3.2 3.2 0.00 0.00 0.00 75 1011.2
20260510011629 17 162 3.2 4.8 0.00 0.00 0.00 76 1011.4
20260510011125 18 160 3.2 3.2 0.00 0.00 0.00 75 1011.3
20260510010621 18 156 3.2 3.2 0.00 0.00 0.00 73 1011.3
20260510010119 18 159 3.2 3.2 0.00 0.00 0.00 72 1011.1
20260510005614 18 158 3.2 3.2 0.00 0.00 0.00 70 1011.2
20260510005111 18 155 3.2 3.2 0.00 0.00 0.00 70 1010.8
20260510004609 18 157 3.2 3.2 0.00 0.00 0.00 70 1010.9
20260510004107 18 158 3.2 3.2 0.00 0.00 0.00 69 1010.9
20260510003604 19 153 3.2 3.2 0.00 0.00 0.00 70 1010.7
20260510003100 19 158 3.2 3.2 0.00 0.00 0.00 68 1010.9
20260510002554 20 148 3.2 3.2 0.00 0.00 0.00 70 1010.8
20260510002051 20 151 1.6 3.2 0.00 0.00 0.00 68 1010.6
20260510001548 20 163 3.2 3.2 0.00 0.00 0.00 65 1010.7
20260510001048 20 161 3.2 3.2 0.00 0.00 0.00 64 1010.7
20260510000542 21 153 3.2 3.2 0.00 0.00 0.00 63 1010.6
20260510000039 21 159 3.2 3.2 0.00 0.00 0.00 63 1010.6
20260509235536 21 161 3.2 3.2 0.00 0.00 0.00 64 1010.4
20260509235033 21 161 1.6 3.2 0.00 0.00 0.00 60 1010.2
20260509234529 22 153 1.6 3.2 0.00 0.00 0.00 59 1010.1
20260509234027 22 173 1.6 3.2 0.00 0.00 0.00 54 1010.2
20260509233524 22 183 1.6 3.2 0.00 0.00 0.00 54 1010.4
20260509233021 22 164 3.2 3.2 0.00 0.00 0.00 53 1010.2
20260509232518 23 169 3.2 3.2 0.00 0.00 0.00 51 1010.1
20260509232015 23 170 3.2 3.2 0.00 0.00 0.00 50 1010.5
20260509231511 23 175 3.2 3.2 0.00 0.00 0.00 50 1010.1
20260509231009 23 167 1.6 3.2 0.00 0.00 0.00 51 1010.3
20260509230505 23 163 3.2 3.2 0.00 0.00 0.00 50 1010.4
20260509230002 23 177 3.2 4.8 0.00 0.00 0.00 50 1010.2
20260509225458 23 165 3.2 3.2 0.00 0.00 0.00 49 1010.2
20260509224953 23 175 1.6 4.8 0.00 0.00 0.00 49 1010.0
20260509224449 23 186 1.6 3.2 0.00 0.00 0.00 49 1010.0
20260509223946 23 148 3.2 4.8 0.00 0.00 0.00 48 1010.1
20260509223443 24 167 1.6 4.8 0.00 0.00 0.00 48 1010.2
20260509222940 24 176 3.2 4.8 0.00 0.00 0.00 49 1010.2
20260509222435 24 173 1.6 4.8 0.00 0.00 0.00 49 1010.2
20260509221932 24 185 3.2 4.8 0.00 0.00 0.00 48 1010.2
20260509221429 23 159 0.0 3.2 0.00 0.00 0.00 49 1010.2
20260509220924 23 168 3.2 3.2 0.00 0.00 0.00 49 1010.0
20260509220420 23 161 3.2 3.2 0.00 0.00 0.00 48 1010.3
20260509215917 23 185 1.6 4.8 0.00 0.00 0.00 49 1010.1
20260509215412 24 159 3.2 3.2 0.00 0.00 0.00 49 1010.0
20260509214910 24 142 3.2 3.2 0.00 0.00 0.00 47 1009.8
20260509214407 25 195 3.2 4.8 0.00 0.00 0.00 48 1009.8
20260509213904 23 166 1.6 3.2 0.00 0.00 0.00 48 1009.8
20260509213359 23 146 3.2 3.2 0.00 0.00 0.00 48 1009.8
20260509212858 23 166 4.8 4.8 0.00 0.00 0.00 47 1009.7
20260509212355 23 153 3.2 4.8 0.00 0.00 0.00 46 1009.8
20260509211851 24 158 3.2 4.8 0.00 0.00 0.00 48 1010.0
20260509211346 24 188 1.6 4.8 0.00 0.00 0.00 49 1009.6
20260509210843 24 54 3.2 4.8 0.00 0.00 0.00 49 1009.6
20260509210341 25 156 3.2 3.2 0.00 0.00 0.00 48 1009.7
20260509205840 25 130 3.2 3.2 0.00 0.00 0.00 45 1009.6
20260509205335 25 240 0.0 3.2 0.00 0.00 0.00 47 1009.6
20260509204832 25 158 4.8 6.4 0.00 0.00 0.00 47 1009.5
20260509204328 24 145 1.6 4.8 0.00 0.00 0.00 49 1009.4
20260509203824 24 184 3.2 4.8 0.00 0.00 0.00 49 1009.6
20260509203321 25 189 3.2 3.2 0.00 0.00 0.00 47 1009.4
20260509202817 25 167 1.6 4.8 0.00 0.00 0.00 44 1009.4
20260509202314 25 232 0.0 3.2 0.00 0.00 0.00 45 1009.2
20260509201813 25 175 0.0 3.2 0.00 0.00 0.00 46 1009.1
20260509201310 25 125 4.8 4.8 0.00 0.00 0.00 47 1009.5
20260509200807 25 196 0.0 1.6 0.00 0.00 0.00 46 1009.6
20260509200302 25 193 0.0 3.2 0.00 0.00 0.00 46 1009.7
20260509195758 25 202 1.6 3.2 0.00 0.00 0.00 44 1009.7
20260509195253 25 210 4.8 4.8 0.00 0.00 0.00 44 1010.0
20260509194748 25 144 0.0 3.2 0.00 0.00 0.00 45 1010.0
20260509194244 25 259 0.0 3.2 0.00 0.00 0.00 46 1010.1
20260509193741 25 96 0.0 3.2 0.00 0.00 0.00 49 1010.2
20260509193241 24 215 0.0 3.2 0.00 0.00 0.00 47 1010.3
20260509192737 23 157 1.6 3.2 0.00 0.00 0.00 48 1010.3
20260509192232 24 184 0.0 3.2 0.00 0.00 0.00 48 1010.4
20260509191728 25 175 3.2 3.2 0.00 0.00 0.00 44 1010.6
20260509191225 25 74 0.0 1.6 0.00 0.00 0.00 45 1010.3
20260509190721 25 188 4.8 4.8 0.00 0.00 0.00 47 1010.6
20260509190218 24 213 0.0 4.8 0.00 0.00 0.00 49 1010.7
20260509185716 23 163 0.0 4.8 0.00 0.00 0.00 50 1010.9
20260509185212 24 150 1.6 4.8 0.00 0.00 0.00 47 1010.9
20260509184709 25 225 0.0 4.8 0.00 0.00 0.00 45 1011.0
20260509184207 25 153 1.6 4.8 0.00 0.00 0.00 46 1010.9
20260509183703 25 101 1.6 4.8 0.00 0.00 0.00 46 1011.1
20260509183158 25 112 1.6 3.2 0.00 0.00 0.00 46 1011.3
20260509182654 25 184 1.6 4.8 0.00 0.00 0.00 46 1011.0
20260509182152 23 173 3.2 4.8 0.00 0.00 0.00 50 1011.1
20260509181649 22 175 3.2 4.8 0.00 0.00 0.00 51 1011.4
20260509181146 22 148 3.2 4.8 0.00 0.00 0.00 50 1011.4
20260509180643 23 83 0.0 4.8 0.00 0.00 0.00 52 1011.6
20260509180139 23 142 1.6 3.2 0.00 0.00 0.00 50 1011.3
20260509175635 23 140 3.2 4.8 0.00 0.00 0.00 50 1011.5
20260509175132 23 160 0.0 3.2 0.00 0.00 0.00 49 1011.5
20260509174628 23 213 1.6 3.2 0.00 0.00 0.00 48 1011.8
20260509174123 23 80 3.2 3.2 0.00 0.00 0.00 49 1011.4
20260509173619 24 128 4.8 6.4 0.00 0.00 0.00 46 1011.4
20260509173115 23 77 4.8 6.4 0.00 0.00 0.00 51 1011.3
20260509172612 23 144 1.6 4.8 0.00 0.00 0.00 52 1011.4
20260509172108 23 221 3.2 3.2 0.00 0.00 0.00 49 1011.4
20260509171604 23 141 0.0 4.8 0.00 0.00 0.00 50 1011.6
20260509171100 23 122 4.8 9.7 0.00 0.00 0.00 49 1011.9
20260509170556 23 213 0.0 4.8 0.00 0.00 0.00 49 1011.8
20260509170053 23 220 1.6 9.7 0.00 0.00 0.00 50 1011.8
20260509165551 22 196 3.2 4.8 0.00 0.00 0.00 51 1011.7
20260509165047 22 143 4.8 8.0 0.00 0.00 0.00 52 1012.0
20260509164543 22 164 1.6 8.0 0.00 0.00 0.00 52 1012.0
20260509164044 22 150 3.2 8.0 0.00 0.00 0.00 51 1012.3
20260509163543 22 161 3.2 4.8 0.00 0.00 0.00 50 1012.4
20260509163038 22 23 3.2 4.8 0.00 0.00 0.00 51 1012.1
20260509162535 22 98 3.2 8.0 0.00 0.00 0.00 51 1012.4
20260509162031 21 183 1.6 4.8 0.00 0.00 0.00 52 1012.2
20260509161527 21 146 3.2 4.8 0.00 0.00 0.00 53 1012.3
20260509161022 21 115 4.8 9.7 0.00 0.00 0.00 49 1012.3
20260509160518 22 159 6.4 8.0 0.00 0.00 0.00 50 1012.4
20260509160014 22 66 3.2 3.2 0.00 0.00 0.00 51 1012.5
20260509155510 21 163 1.6 4.8 0.00 0.00 0.00 50 1012.7
20260509155006 21 184 1.6 9.7 0.00 0.00 0.00 51 1012.7
20260509154502 21 151 0.0 3.2 0.00 0.00 0.00 53 1012.5
20260509154000 21 155 4.8 4.8 0.00 0.00 0.00 53 1012.9
20260509153457 21 142 3.2 4.8 0.00 0.00 0.00 55 1013.0
20260509152953 21 173 3.2 4.8 0.00 0.00 0.00 54 1012.8
20260509152449 21 233 0.0 6.4 0.00 0.00 0.00 55 1013.2
20260509151947 21 97 4.8 6.4 0.00 0.00 0.00 57 1013.0
20260509151443 21 161 1.6 4.8 0.00 0.00 0.00 57 1013.1
20260509150941 20 128 0.0 3.2 0.00 0.00 0.00 58 1013.2
20260509150438 20 148 4.8 4.8 0.00 0.00 0.00 60 1013.1
20260509145936 20 118 6.4 6.4 0.00 0.00 0.00 59 1013.4
20260509145431 20 193 3.2 4.8 0.00 0.00 0.00 60 1013.2
20260509144927 20 129 4.8 4.8 0.00 0.00 0.00 60 1013.4
20260509144424 20 93 3.2 6.4 0.00 0.00 0.00 62 1013.6
20260509143921 19 312 3.2 4.8 0.00 0.00 0.00 63 1013.6
20260509143418 19 87 3.2 4.8 0.00 0.00 0.00 65 1013.6
20260509142914 18 106 1.6 4.8 0.00 0.00 0.00 66 1014.0